Regional Weather Roundup
Issued by NWS

Home | Current Version | Previous Version | Graphics & Text | Print | Product List | Glossary Off
Versions: 1 2 3 4 5 6 7 8 9 10 11 12 13 14 15 16 17 18 19 20 21 22 23 24 25 26 27 28 29 30 31 32 33 34 35 36 37 38 39 40 41 42 43 44 45 46 47 48 49 50

000
ASUS43 KDTX 310801
RWRMI
MICHIGAN HOURLY REGIONAL WEATHER ROUNDUP
NATIONAL WEATHER SERVICE DETROIT/PONTIAC MI
400 AM EDT WED AUG 31 2016

NOTE: "FAIR" INDICATES FEW OR NO CLOUDS BELOW 12,000 FEET WITH NO
SIGNIFICANT WEATHER AND/OR OBSTRUCTION TO VISIBILITY.

MIZ047>049-052>055-059>063-066>070-074>076-081>083-310900-
SOUTHEAST LOWER MICHIGAN

CITY           SKY/WX    TMP DP  RH WIND       PRES   REMARKS
ADRIAN         CLOUDY    69  69 100 CALM      30.02S
ALMA           CLOUDY    71  71 100 W12       30.03S FOG
ANN ARBOR      CLOUDY    70  68  93 CALM      30.01S
BAD AXE        CLOUDY    66  65  97 N5        30.01S
CARO           CLOUDY    71  70  98 CALM      30.00R FOG
DETROIT CITY   PTCLDY    73  68  84 SW3       30.00S
DETROIT        CLOUDY    72  68  87 W3        30.00F
FLINT          CLOUDY    69  68  96 W5        30.01S
GROSSE ILE     CLOUDY    71  68  92 CALM      30.00S
HILLSDALE      CLOUDY    68  67  96 W6        30.02F FOG
HOWELL         RAIN      70  69  96 W5        30.02F

CITY           SKY/WX    TMP DP  RH WIND       PRES   REMARKS
JACKSON        CLOUDY    69  69 100 W5        30.02F
LAMBERTVILLE   MOCLDY    70  68  94 CALM      30.02S FOG
LANSING        RAIN      70  67  90 W3        30.03S FOG
LAPEER         FAIR      71  69  91 W5        30.01S
MASON          LGT RAIN  68  67  95 CALM      30.02F
MONROE         CLOUDY    70  70 100 CALM      30.00F
MT. CLEMENS    LGT RAIN  73  69  86 W6        29.98S
PONTIAC        HVY RAIN  69  66  90 NW10      30.00F FOG
PORT HOPE        N/A     70  64  81 NW7       30.00R
PORT HURON     PTCLDY    66  66 100 CALM      29.99S
TRI CITIES     CLOUDY    70  69  97 N9        30.02R
MIDLAND        CLOUDY    68  67  99 N5        30.01S
TROY           CLOUDY    75  67  75 NW5       30.02S
SAGINAW HB     CLOUDY    70  68  94 NW5       30.00S
$$
MIZ043>046-050>051-056>058-064>065-071>073-077>080-310900-
SOUTHWEST LOWER MICHIGAN

CITY           SKY/WX    TMP DP  RH WIND       PRES   REMARKS
BATTLE CREEK   CLOUDY    68  68 100 CALM      30.04S
BENTON HARBOR  CLOUDY    72  69  90 CALM      30.02S FOG
BIG RAPIDS     HVY RAIN  70  67  92 N7        30.05R
COLDWATER      CLOUDY    69  69 100 CALM      30.03S FOG
FREMONT        FOG       69  68  98 CALM      30.03S VSB 3/4
HOLLAND        CLOUDY    70  69  97 CALM      30.03S FOG
GRAND RAPIDS   CLOUDY    72  69  90 NW5       30.03S FOG
IONIA          FOG       70  69  97 CALM      30.02F VSB 1
KALAMAZOO      CLOUDY    70  67  90 CALM      30.03S
LUDINGTON      CLOUDY    65  63  94 NE6       30.05S
MARSHALL       CLOUDY    69  68  98 CALM      30.03S
MOUNT PLEASANT MOCLDY    69  68  96 N5        30.02S
MUSKEGON       CLOUDY    72  71  97 CALM      30.02S
SOUTH HAVEN    CLOUDY    71  71  99 CALM      30.02S
$$
MIZ016>042-310900-
NORTHERN LOWER MICHIGAN

CITY           SKY/WX    TMP DP  RH WIND       PRES   REMARKS
ALPENA         CLEAR     59  55  87 W6        30.03F
BEAVER ISLAND  CLEAR     62  56  80 N5        30.08S
BELLAIRE       CLEAR     56  54  95 CALM      30.07F
CADILLAC       CLOUDY    64  54  70 N6        30.08R
CHARLEVOIX     CLEAR     65  56  75 N8        30.09F
FRANKFORT      PTCLDY    65  54  66 NE5       30.07F
GAYLORD        CLEAR     59  51  75 VRB3      30.07F
GRAYLING       MOCLDY    62  53  72 CALM      30.07F
HARBOR SPRINGS CLEAR     55  53  95 CALM      30.06F
HOUGHTON LAKE  CLOUDY    66  57  72 N7        30.06S
MANISTEE       CLOUDY    64  56  75 N7        30.06S
OSCODA         PTCLDY    60  58  95 NW6       30.01S
PELLSTON       CLEAR     55  52  89 CALM      30.06F
ROGERS CITY    CLEAR     58  55  88 W6        30.04F
TRAVERSE CITY  PTCLDY    67  55  65 N6        30.06S
$$
MIZ007>008-015-310900-
EASTERN UPPER MICHIGAN

CITY           SKY/WX    TMP DP  RH WIND       PRES   REMARKS
KINROSS        CLEAR     54  53  97 NW5       30.05S
MACKINAC ISLAN CLEAR     59  59 100 NW8       30.05S
NEWBERRY       CLEAR     57  56  97 NW7       30.08S
S. S. MARIE    CLEAR     61  55  81 NW5       30.04S
MUNISING         N/A     54  54 100 S6        30.08F
$$
MIZ004>006-011>014-085-310900-
CENTRAL UPPER MICHIGAN

CITY           SKY/WX    TMP DP  RH WIND       PRES   REMARKS
MANISTIQUE     CLEAR     54  51  92 NW6       30.08F
ESCANABA       CLEAR     50  50 100 W3        30.10F FOG
MENOMINEE      CLEAR    N/A N/A N/A NW5       30.12S
SAWYER-GWINN   CLEAR     47  45  93 CALM      30.12S
$$
MIZ001>003-009>011-084-310900-
WESTERN UPPER MICHIGAN

CITY           SKY/WX    TMP DP  RH WIND       PRES   REMARKS
IRON MOUNTAIN  CLEAR     50  45  83 NW3       30.12S
HOUGHTON       CLEAR     53  50  89 N7        30.12S
COPPER HARBOR    N/A     60  57  89 VRB3      30.10R
IRONWOOD       FOG       49  49 100 W3        30.17S VSB 3/4
$$

ABBREVIATIONS USED IN REMARKS
   TC - TEMPERATURE IN CELSIUS
  WCI - WIND CHILL INDEX
   HX - HEAT INDEX
  VSB - VISIBILITY




USA.gov is the U.S. government's official web portal to all federal, state and local government web resources and services.